Location: Madden
(51.3728°N, 114.3297°W)
Time: 03:57:09
(UTC+00:00)

BlueWalker 3 - Visible Passes

Search period start: 10 June 2023 00:00
Search period end: 20 June 2023 00:00
Orbit: 493 x 513 km, 53.2° (Epoch: 09 June)

Date Brightness Start Highest point End Pass type
(mag) Time Alt. Az. Time Alt. Az. Time Alt. Az.
10 Jun 1.9 04:53:02 10° WNW 04:56:55 86° SSW 05:00:48 10° ESE visible
10 Jun 3.1 06:31:50 10° W 06:35:06 26° SW 06:36:05 24° SSW visible
11 Jun 1.9 04:32:35 10° WNW 04:36:27 85° SSW 04:40:20 10° ESE visible
11 Jun 3.2 06:11:23 10° W 06:14:38 26° SW 06:16:01 21° S visible
12 Jun 3.3 05:50:56 10° W 05:54:09 25° SW 05:55:59 18° S visible
13 Jun 3.3 05:30:27 10° W 05:33:40 25° SW 05:36:00 15° S visible
14 Jun 3.4 05:09:58 10° W 05:13:09 24° SW 05:16:03 11° SSE visible
15 Jun 3.5 04:49:29 10° W 04:52:37 24° SW 04:55:46 10° SSE visible
